Lapse_Rate
4.5 4.3 6.1 6.6 6.4 6.3 6.2 5.9 5.8 5.8 5.9 6.1 6.4 6.4 6.4 6.3 6.3 6.5 6.3 6.3 6.3 6.6 7.8 6.6 7.2 7.0 6.9 6.8 6.8 7.0 6.8 6.5 6.4 6.5 7.0 6.3 6.1 6.0 6.6 6.2 5.8 6.9 7.7
4.2 4.5 5.9 6.6 6.4 6.4 6.2 6.1 5.8 5.5 5.7 6.1 6.3 6.4 6.2 6.2 6.5 6.4 6.6 6.6 6.5 6.5 7.2 8.9 7.5 7.5 7.4 7.2 6.7 6.4 6.3 5.9 5.9 5.9 6.5 6.5 5.8 6.0 6.5 6.4 6.0 6.2 6.5
4.1 4.6 5.4 6.4 6.9 6.3 6.2 6.3 5.9 5.7 5.6 6.1 6.2 6.4 6.5 6.6 6.3 6.4 6.5 6.5 6.7 7.0 7.1 8.4 7.2 7.4 7.3 6.6 6.2 6.2 5.8 5.6 5.5 5.1 5.7 5.5 5.6 6.2 6.7 6.6 6.5 6.6 6.8
4.0 4.4 4.9 5.5 6.2 6.4 6.3 5.9 6.3 6.1 6.0 5.9 6.0 6.3 6.8 6.9 6.7 6.4 6.3 6.7 6.8 7.5 8.0 7.7 7.3 6.7 6.4 6.2 6.2 5.9 5.6 5.1 4.7 4.4 4.5 5.1 6.2 6.5 6.7 7.1 6.5 6.6 6.8
3.8 4.1 4.4 5.0 5.8 6.2 6.2 6.0 5.9 6.4 6.3 5.9 6.0 6.4 6.5 6.7 6.7 6.9 6.5 6.6 7.1 7.6 7.1 6.5 6.7 6.6 6.3 6.2 6.2 6.0 5.4 4.8 4.2 4.4 4.7 5.2 6.0 6.8 6.7 5.7 5.7 5.9 5.8
3.3 4.4 4.8 5.1 5.1 5.9 6.1 6.0 6.2 6.1 6.6 6.1 6.0 6.0 6.5 6.4 6.5 6.3 6.4 6.6 6.8 6.4 6.5 6.3 6.2 6.4 6.6 6.4 6.5 6.3 5.6 4.3 3.9 4.3 4.5 5.9 6.2 6.8 6.2 5.7 5.6 5.5 5.5
2.8 3.6 5.0 5.3 5.7 6.0 6.2 6.3 6.4 6.5 6.3 6.4 6.1 6.2 6.5 6.6 6.6 6.6 6.8 6.7 6.6 6.0 6.0 5.6 5.9 6.5 6.3 6.7 6.3 6.5 5.8 4.7 4.4 4.8 5.1 5.7 6.3 7.1 6.2 5.9 5.5 5.3 5.5
3.5 3.1 4.2 4.5 4.4 4.7 6.4 6.7 6.5 6.6 6.7 6.4 6.3 6.3 6.3 6.4 6.4 6.7 6.2 6.6 6.4 6.1 6.1 5.8 5.3 6.2 6.6 6.6 6.3 6.0 5.1 5.0 4.9 5.3 5.6 5.7 6.7 6.4 6.1 5.7 5.5 5.2 5.5
2.6 2.5 2.9 3.3 4.1 4.0 3.4 4.1 6.6 6.8 6.8 6.7 6.7 6.3 6.3 6.2 6.2 6.5 6.1 6.5 6.5 6.1 6.0 5.9 5.4 5.3 6.4 6.6 5.8 5.3 4.8 5.0 5.0 4.8 5.5 5.7 6.4 6.3 5.8 5.7 5.6 5.3 5.4
1.6 1.3 1.5 2.3 2.9 3.5 3.4 3.1 4.1 6.1 6.7 6.9 6.8 6.8 6.6 6.5 6.3 6.4 6.0 6.5 6.4 6.1 5.9 5.9 5.7 5.1 5.3 6.2 5.6 4.8 4.7 5.0 4.9 4.9 5.1 5.9 6.6 6.3 6.2 6.2 6.4 6.1 5.6
1.8 1.2 1.1 1.2 1.9 2.5 2.9 3.0 2.9 4.1 5.4 6.3 6.9 6.7 6.6 5.9 5.8 5.7 5.3 5.9 6.2 6.1 5.9 5.9 5.8 5.1 4.5 5.2 5.5 5.4 5.4 4.8 4.9 4.9 5.2 6.5 6.8 6.7 6.8 6.7 7.1 7.1 6.6
2.9 2.1 1.0 0.8 1.0 1.6 2.6 2.6 2.4 2.8 3.7 4.7 5.4 5.8 5.4 5.4 5.3 5.0 4.8 6.1 6.1 5.9 5.9 6.0 5.9 5.0 4.0 3.4 4.6 5.2 4.9 5.0 4.9 5.3 5.6 6.4 7.0 7.1 6.9 7.4 7.4 6.9 7.0
2.9 1.4 1.5 1.0 0.9 1.0 1.1 1.5 1.4 1.9 2.5 3.0 4.1 4.6 5.0 4.6 4.4 4.1 3.9 4.8 5.2 5.6 5.3 6.0 5.6 3.2 2.6 2.3 3.0 4.1 4.7 5.1 5.3 5.5 6.0 6.8 7.4 7.0 7.0 7.3 6.7 6.5 6.3
2.8 2.2 1.6 0.8 0.2 -0.0 0.8 0.8 0.9 1.2 2.3 2.8 3.5 3.7 3.8 3.9 3.7 3.2 3.7 4.5 4.7 4.9 4.2 4.2 3.3 2.3 2.0 2.5 2.8 3.4 4.7 5.1 5.0 5.7 6.1 6.9 7.4 7.1 7.2 7.5 7.5 6.6 6.5
2.5 1.9 1.1 0.3 -0.1 -0.2 0.1 0.3 0.5 1.5 2.9 3.6 3.1 3.6 4.2 4.0 4.1 3.6 3.6 3.9 3.8 3.2 3.7 2.9 3.1 2.2 2.3 2.5 3.3 4.1 3.9 4.4 4.7 5.1 5.8 6.9 7.2 6.7 7.2 7.9 7.6 6.9 6.8
2.5 1.8 1.6 0.9 -0.1 -0.3 -0.2 0.2 0.5 0.8 2.6 2.4 2.5 2.8 3.1 4.1 4.3 3.6 3.5 3.7 3.6 3.7 3.6 2.9 2.6 2.1 2.8 3.4 3.0 3.8 3.6 4.6 4.3 4.6 5.5 6.6 6.8 6.9 7.1 7.3 7.6 7.4 7.2
2.2 1.8 1.4 1.4 0.5 0.1 0.0 0.2 0.4 0.9 2.1 2.3 2.5 2.4 2.6 3.2 3.3 4.0 3.9 3.7 3.8 3.9 3.5 2.7 2.4 2.6 2.5 3.7 3.4 4.0 4.1 4.0 4.2 4.3 4.8 5.5 5.7 6.6 7.5 8.2 7.5 8.3 8.3
1.6 1.4 1.7 2.1 1.2 0.6 0.3 0.1 0.1 0.7 1.4 1.7 2.5 3.1 3.3 3.8 3.2 3.3 3.3 3.8 3.8 3.5 4.0 3.7 2.5 3.3 3.8 3.6 3.4 4.0 4.9 3.9 4.0 4.2 4.6 5.4 5.7 6.0 6.9 7.0 7.8 8.6 8.1
1.6 1.6 1.7 1.9 1.4 1.1 0.7 0.3 0.2 0.4 0.5 1.0 1.3 2.0 3.5 3.6 3.6 3.7 3.7 3.9 3.8 4.0 3.4 5.7 3.3 3.8 4.1 3.5 3.7 3.3 3.9 2.9 3.9 4.3 4.3 5.2 6.2 6.1 6.5 7.2 7.6 8.4 8.6
1.4 1.3 1.3 1.3 1.2 0.8 0.7 0.6 0.3 0.8 1.4 1.4 0.9 1.0 1.9 3.1 3.6 3.7 3.9 4.1 4.4 4.5 4.1 4.5 5.0 4.7 4.0 4.2 4.4 3.7 2.4 2.5 2.8 3.6 3.7 4.7 6.2 6.1 6.9 7.7 8.0 8.1 8.4
1.8 1.7 1.5 1.4 1.3 0.9 1.4 1.6 2.0 2.0 2.4 2.4 3.1 2.2 1.8 2.1 2.9 3.4 3.5 4.5 4.3 5.3 4.9 5.4 4.8 4.4 4.2 4.4 3.5 2.8 2.4 2.5 3.0 2.8 3.0 3.1 4.9 5.1 6.3 6.9 7.5 7.9 8.0
1.7 1.6 1.6 1.5 1.4 2.1 2.2 1.9 2.8 3.3 3.5 3.4 3.3 3.0 2.9 2.4 2.6 3.3 3.8 4.7 4.3 5.7 5.0 5.1 5.2 4.4 2.9 4.8 5.1 4.0 4.1 4.0 3.6 3.4 2.9 3.2 3.9 5.0 4.9 5.5 6.0 6.0 6.6
2.1 2.4 2.3 2.3 2.1 2.7 2.7 3.3 3.8 3.8 3.3 2.4 2.6 3.2 3.8 3.2 2.6 3.0 3.9 5.3 6.1 6.0 5.2 4.0 3.8 5.0 4.8 4.7 5.1 5.2 4.3 5.3 4.7 3.6 4.0 4.2 4.1 3.8 3.9 4.5 4.9 5.1 5.6
3.1 2.8 2.5 2.7 2.8 3.0 3.1 2.9 3.8 4.5 5.0 4.8 4.3 4.4 4.2 4.6 3.4 4.0 4.5 6.0 6.8 6.1 5.9 4.6 3.3 4.5 5.1 5.1 5.1 3.8 2.8 2.9 5.6 4.1 3.6 3.7 3.8 3.6 2.8 3.2 3.7 4.0 4.5
3.0 2.9 2.7 2.5 2.8 3.1 3.2 3.8 3.9 4.3 4.9 6.0 5.1 4.8 3.9 4.3 4.8 4.8 5.2 5.7 6.7 6.6 6.1 4.4 3.9 4.1 4.0 4.9 5.2 2.3 2.5 1.2 1.5 3.1 4.6 3.7 3.3 2.6 2.3 2.5 2.9 3.1 3.6
2.7 3.1 2.9 2.8 3.0 3.7 4.1 4.2 4.4 5.4 5.3 5.3 5.2 5.0 4.4 4.5 5.1 5.4 5.1 5.4 6.3 6.0 4.9 4.2 3.7 3.4 4.3 4.8 4.1 4.2 3.7 3.1 2.0 2.5 2.4 2.6 3.8 2.4 2.0 2.0 2.3 2.7 3.2
Wind_Speed
2 6 6 9 10 9 9 12 11 10 9 11 15 17 20 19 18 17 17 16 16 14 16 15 15 15 16 17 16 16 16 15 15 14 16 17 17 17 16 15 12 14 14
3 7 6 9 11 10 10 12 12 11 10 11 12 17 17 16 16 16 15 16 15 15 14 14 14 14 15 15 14 14 14 14 15 14 18 17 15 16 16 13 13 13 13
4 7 6 7 6 9 9 12 13 12 12 12 12 15 15 16 15 15 16 16 16 15 15 14 13 14 15 15 15 14 14 14 13 14 16 15 14 15 14 15 17 16 15
5 8 7 7 8 7 8 11 12 13 13 13 14 15 15 15 14 15 16 16 15 15 15 15 16 15 15 15 15 14 14 12 11 13 12 10 10 15 16 17 16 15 18
4 6 7 9 9 9 10 11 12 13 14 13 14 16 16 16 16 16 16 16 16 16 15 14 15 16 16 15 16 15 12 11 10 10 9 8 14 18 18 15 14 15 13
4 3 2 8 11 10 10 12 13 14 14 15 14 14 15 17 19 16 17 17 17 16 16 14 14 14 17 15 15 15 12 11 12 11 13 14 15 18 14 13 13 12 12
5 4 1 2 7 10 10 11 13 14 15 16 16 15 15 16 16 18 17 17 18 17 17 16 14 13 13 16 13 12 13 14 16 15 14 13 17 17 12 12 11 11 11
4 5 3 2 4 2 11 12 14 14 15 16 17 16 16 16 15 15 16 18 20 20 18 17 17 13 13 13 12 13 17 18 17 15 14 13 16 14 11 11 10 10 11
6 4 4 3 1 1 2 5 14 16 16 17 17 17 17 17 17 16 17 19 23 23 20 18 17 18 14 12 13 15 18 19 18 13 12 13 14 12 11 11 11 12 11
6 5 5 3 4 2 4 2 3 12 18 18 19 18 19 18 17 17 18 21 25 24 21 19 17 18 17 12 16 17 19 18 17 15 14 13 12 12 11 12 12 13 13
5 7 4 5 5 5 4 5 3 4 10 19 21 22 20 15 16 17 18 23 24 23 20 19 17 16 19 16 17 20 20 16 16 13 12 13 11 11 11 10 11 14 14
5 6 6 6 6 6 5 5 5 4 5 8 12 14 15 15 15 14 17 25 23 21 20 18 17 17 19 16 16 18 16 14 13 13 12 14 13 13 14 16 15 14 14
4 4 6 6 7 5 4 4 5 4 4 5 8 11 13 11 11 11 11 14 14 18 14 15 14 13 14 15 16 15 15 13 9 13 12 14 15 13 18 18 15 14 16
5 6 5 6 5 6 5 3 4 2 4 3 6 8 7 5 7 7 9 12 14 14 11 13 10 11 13 15 17 16 14 12 11 14 14 15 15 13 18 18 15 15 16
6 7 8 4 6 5 5 3 3 3 3 5 5 9 9 6 6 8 8 9 12 14 13 9 11 10 10 14 14 15 13 12 10 14 15 15 12 15 19 16 17 15 14
6 8 7 6 5 5 5 5 3 3 4 3 2 2 3 8 6 5 6 7 9 16 14 13 10 7 6 11 8 11 12 13 10 13 14 12 11 13 18 20 17 15 12
6 6 8 6 5 6 6 5 3 3 3 2 3 4 6 4 4 5 7 8 9 16 17 12 10 10 6 7 7 9 11 12 10 11 12 10 9 16 16 15 17 14 13
7 8 6 5 5 6 6 4 3 3 2 3 3 4 5 6 2 1 3 6 13 12 11 10 9 8 8 8 5 6 5 10 10 10 11 14 16 14 14 16 14 15 14
6 7 7 5 6 6 4 3 3 3 3 5 5 6 7 8 8 5 3 2 10 8 10 8 10 11 8 7 7 5 5 5 7 9 11 12 14 12 14 15 13 13 12
6 6 6 5 6 5 4 3 2 2 3 5 4 6 10 9 11 9 5 6 8 5 9 9 9 7 10 9 8 6 3 4 4 5 8 10 12 11 12 13 12 11 10
6 5 6 6 3 4 2 2 2 3 2 4 6 8 8 9 10 9 7 8 8 8 8 12 9 11 7 10 8 6 4 4 3 3 5 7 8 9 12 13 12 12 11
6 6 6 6 4 4 3 2 2 2 3 5 4 6 12 10 11 8 9 9 11 10 10 10 12 9 2 12 7 6 4 1 1 2 2 4 5 9 9 14 15 12 10
7 6 6 6 6 6 8 3 2 1 2 2 6 6 9 13 12 11 10 10 11 12 10 13 12 13 8 10 14 6 4 4 5 1 2 3 5 3 6 11 12 12 11
7 6 5 6 6 6 6 4 6 7 9 8 7 6 7 11 9 12 11 12 12 11 13 14 13 13 10 11 9 1 3 6 5 3 0 2 2 4 5 7 11 13 13
6 5 5 6 6 6 6 8 6 9 9 8 5 7 8 9 10 9 11 12 12 12 12 15 15 12 12 10 9 3 3 3 5 3 3 2 1 3 4 6 12 14 16
5 4 3 6 7 7 7 8 8 10 11 8 8 7 6 7 7 9 12 13 13 11 13 14 15 13 12 11 6 6 6 4 4 4 3 2 5 3 3 6 8 12 16
Wind_Direction
243 203 213 167 168 170 163 155 154 149 136 124 135 140 142 143 143 140 137 135 134 133 131 126 116 121 119 116 113 112 115 110 104 107 111 109 111 105 109 106 104 103 96
318 167 200 192 184 178 180 176 163 154 154 138 139 143 153 148 145 144 144 142 141 140 134 134 128 123 120 117 118 118 112 106 98 99 123 112 110 112 114 118 115 115 118
178 174 200 216 208 181 187 187 172 169 166 162 150 154 156 153 153 154 153 152 151 147 144 139 138 130 125 122 124 122 119 115 107 105 111 114 120 120 114 111 103 92 108
167 175 197 214 215 210 194 192 188 180 179 169 166 168 168 168 171 168 164 160 155 150 149 147 144 135 132 132 129 124 117 114 115 112 116 119 126 125 119 106 97 92 86
144 186 215 223 220 218 210 203 201 195 191 185 185 177 176 173 174 174 172 166 160 151 139 132 133 140 138 138 132 124 109 116 121 122 113 122 130 118 104 98 96 93 95
107 136 229 258 244 226 216 211 208 207 205 194 195 187 184 180 177 179 180 173 160 149 143 139 139 140 141 143 137 134 112 110 115 120 113 110 110 104 104 104 103 102 102
209 212 206 25 217 234 234 225 218 213 214 204 200 198 195 195 192 189 183 182 162 152 152 157 150 139 139 141 144 149 129 121 114 104 112 106 106 104 104 104 104 106 114
216 226 248 40 57 259 245 238 227 220 217 213 208 205 207 200 201 203 190 188 170 160 160 162 156 142 140 136 132 140 138 130 116 110 104 103 111 106 111 109 110 113 122
278 273 247 275 208 281 297 302 239 223 220 218 220 211 208 211 208 208 206 194 181 168 165 166 162 150 148 142 135 139 138 137 126 117 116 115 114 120 122 123 118 120 121
262 267 271 266 290 258 275 286 288 247 225 219 220 224 221 219 217 210 216 204 182 171 169 168 168 158 146 144 141 139 130 134 128 127 127 123 125 128 134 130 127 122 125
264 253 257 273 268 268 258 258 272 264 250 229 223 224 226 220 215 207 197 189 180 174 171 169 170 164 145 146 144 139 142 137 136 138 139 136 140 140 141 146 121 138 132
263 274 248 243 252 260 266 266 272 276 261 237 222 216 214 212 210 199 197 186 176 176 171 172 172 164 147 140 142 145 141 145 150 148 151 155 143 150 154 117 122 127 138
250 265 267 251 240 248 257 260 267 258 252 241 229 217 205 195 183 173 170 171 164 168 167 172 170 154 152 147 146 148 148 145 155 143 161 152 150 150 136 118 114 113 121
263 263 268 263 228 225 237 241 265 270 265 245 220 217 188 176 175 166 176 178 167 170 160 161 151 155 152 154 152 149 151 149 157 152 161 156 155 158 137 136 128 115 113
266 283 285 249 241 214 213 218 236 247 249 261 265 201 199 197 186 179 179 180 173 160 164 158 156 154 159 155 151 152 147 153 164 157 156 157 169 160 145 144 138 132 123
261 267 281 285 236 197 205 202 212 210 220 205 250 98 185 199 191 189 189 184 181 170 172 168 165 156 160 159 145 151 148 151 163 156 160 159 184 169 158 142 146 142 138
262 265 272 281 231 214 201 206 206 210 200 154 149 140 129 83 75 203 189 192 190 181 167 157 146 147 142 155 151 146 148 145 161 165 148 128 139 152 159 142 158 143 165
267 271 281 271 216 210 205 193 196 212 216 211 214 196 191 152 236 338 257 198 187 184 173 171 159 161 161 155 150 152 146 146 159 161 144 140 132 138 134 130 145 148 154
267 267 278 276 247 217 183 170 189 203 225 238 247 240 233 227 209 213 231 222 205 200 161 197 169 164 163 146 142 131 137 139 159 154 145 149 140 151 146 151 139 151 161
287 280 274 268 236 197 164 153 167 203 252 270 252 226 228 229 221 215 220 208 205 212 183 166 182 168 159 156 139 117 104 109 137 153 146 150 149 158 149 144 154 162 162
284 278 273 278 232 167 157 154 188 222 198 245 252 250 239 223 227 216 218 218 194 202 200 179 166 160 152 143 120 102 58 62 83 99 136 141 124 139 150 160 163 173 169
277 285 270 252 219 201 171 173 179 174 220 231 225 233 237 222 218 225 219 218 207 202 177 177 170 163 151 171 163 130 130 77 78 96 119 149 140 150 153 153 160 168 167
287 280 257 239 214 208 198 180 189 199 215 224 236 225 236 228 220 219 221 218 210 208 190 171 164 173 178 186 163 150 146 177 133 136 168 165 160 167 160 168 170 172 171
283 289 252 228 217 212 202 192 208 236 253 250 236 229 230 229 220 224 223 221 211 211 193 180 172 169 166 190 166 154 120 135 156 137 210 206 188 188 183 187 185 185 182
290 295 270 240 238 223 203 204 212 243 247 248 224 223 217 221 214 221 221 223 213 208 194 172 172 172 161 181 182 151 93 76 100 130 161 171 201 218 202 191 194 193 193
307 293 270 247 251 230 213 213 227 249 248 229 228 231 234 222 214 209 219 222 217 203 186 165 165 158 165 165 183 165 152 144 140 132 115 155 190 235 191 196 198 199 197